Regional Weather Roundup
Issued by NWS

Home | Current Version | Previous Version | Graphics & Text | Print | Product List | Glossary On
Versions: 1 2 3 4 5 6 7 8 9 10 11 12 13 14 15 16 17 18 19 20 21 22 23 24 25 26 27 28 29 30 31 32 33 34 35 36 37 38 39 40 41 42 43 44 45 46 47 48 49 50
000
ASUS45 KABQ 210110
RWRNM
NEW MEXICO REGIONAL WEATHER ROUNDUP
NATIONAL WEATHER SERVICE ALBUQUERQUE NM
700 PM MDT SUN AUG 20 2017

NOTE: "FAIR" MEANS FEW OR NO CLOUDS BELOW 12,000 FEET AGL WITH NO
       SIGNIFICANT WEATHER OR OBSTRUCTIONS TO VISION.

      THIS PRODUCT IS RELEASED AS TWO VERSIONS.  ONE VERSION NEAR
      THE TOP OF THE HOUR CONTAINING PRELIMINARY DATA FROM ALBUQUERQUE
      AND OTHER STATIONS.  A FINAL VERSION WITH ADDITIONAL DATA IS
      ISSUED ABOUT 10 MINUTES AFTER THE HOUR.

NMZ501-503-504-510>518-210200-
NORTHWEST PLATEAU/NORTHCENTRAL MOUNTAINS

CITY           SKY/WX    TMP DP  RH WIND       PRES   REMARKS
FARMINGTON     FAIR      69  51  52 SE17      30.11F
LOS ALAMOS     CLOUDY    66  44  45 W6        30.26F
SANTA FE       FAIR      66  60  81 SE3       30.20F
TAOS           FAIR      60  54  80 SE6       30.28F
ANGEL FIRE     CLOUDY    56  46  66 E6        30.37S

$$
NMZ402-403-502-505>509-210200-
WESTCENTRAL MOUNTAINS/SOUTHWEST MOUNTAINS

CITY           SKY/WX    TMP DP  RH WIND       PRES   REMARKS
GALLUP         FAIR      75  45  34 S9        30.15S
GRANTS         MOCLDY    73  43  33 SE18G30   30.20R
SILVER CITY    CLOUDY    70  56  61 SE6       30.13S

$$
NMZ407-409-411-412-210200-
SOUTHERN DESERTS

CITY           SKY/WX    TMP DP  RH WIND       PRES   REMARKS
DEMING         CLOUDY    74  62  66 E3        30.06S
LAS CRUCES     FAIR      73  62  69 CALM      30.08F
HOLLOMAN AFB   FAIR      73  64  73 W7        30.08F
ALAMOGORDO     FAIR      73  64  73 W8        30.07F
T OR C         FAIR      75  56  51 SE7       30.08S

$$
NMZ519>523-210200-
CENTRAL VALLEYS/CENTRAL HIGHLANDS

CITY           SKY/WX    TMP DP  RH WIND       PRES   REMARKS
ALBUQUERQUE    MOCLDY    73  50  44 E8        30.12F
DOUBLE EAGLE   MOCLDY    72  48  43 SE9       30.16F
MORIARTY ARPT  CLOUDY    65  56  73 CALM      30.20S
CLINES CORNERS CLOUDY    61  53  75 E5        30.25S
BELEN          CLOUDY    73  50  45 CALM      30.12S
SOCORRO        FAIR      73  53  49 S9        30.09F

$$
NMZ524>526-539-540-210200-
SOUTHCENTRAL MOUNTAINS

CITY           SKY/WX    TMP DP  RH WIND       PRES   REMARKS
RUIDOSO        NOT AVBL

$$
NMZ527>531-210200-
NORTHEAST HIGHLANDS/NORTHEAST PLAINS

CITY           SKY/WX    TMP DP  RH WIND       PRES   REMARKS
LAS VEGAS      CLOUDY    66  53  63 SW12      30.23R
RATON          LGT RAIN  66  50  56 N15       30.17F
CLAYTON        FAIR      77  59  53 S12       30.07R

$$
NMZ532>537-210200-
EASTCENTRAL PLAINS

CITY           SKY/WX    TMP DP  RH WIND       PRES   REMARKS
SANTA ROSA     CLOUDY    71  56  59 SW6       30.10R
TUCUMCARI      TSTM      69  63  81 S14G29    30.08R
CANNON AFB     TSTM      67  67 100 W9        30.16R
CLOVIS AIRPORT CLOUDY    68  65  90 S8        30.14R

$$
NMZ028-029-538-210200-
SOUTHEAST PLAINS

CITY           SKY/WX    TMP DP  RH WIND       PRES   REMARKS
ROSWELL        FAIR      72  64  76 NE12      30.04S
ARTESIA        MOCLDY    73  70  88 S15       30.06R
CARLSBAD       LGT RAIN  69  69 100 NW6       30.05R FOG
HOBBS          CLOUDY    73  66  78 S9        30.07R


$$




USA.gov is the U.S. government's official web portal to all federal, state and local government web resources and services.